Weather in Hachioji

Japan     35°39′31″N   139°15′29″E
temp.,
°C
wind,
m/s
gust,
m/s
humid.,
%
clouds,
%
prec.,
mm/h
press.,
hPa
HPBL,
m
14 may, fri
fri1400:00+15nnw2286100 0.0 101463
03:00+15nnw128882 0.0 101347
06:00+16nw12830 0.0 101390
09:00+21ene22600 0.0 1013791
12:00+25e43453 0.0 10121391
15:00+26se42428 0.0 10111548
18:00+21sse456814 0.0 1012246
21:00+18ssw1284100 0.0 101596
15 may, sat
sat1500:00+17nne1190100 0.0 101691
03:00+17nnw0190100 0.0 101727
06:00+18e1188100 0.0 1018207
09:00+18se2388100 0.3 1019463
12:00+20sse3577100 0.4 1017793
15:00+22sse666662 0.6 10161031
18:00+19sse5781100 0.1 1016535
21:00+16s3594100 0.1 1017213
16 may, sun
sun1600:00+16ssw3489100 0.0 1016165
03:00+16ssw2384100 0.0 1015138
06:00+16s3483100 0.0 1014210
09:00+17s3580100 0.1 1014308
12:00+21sse4565100 0.2 1012893
15:00+19s4571100 0.2 1011533
18:00+17ssw2389100 0.6 1011128
21:00+17wnw1190100 0.6 101046
17 may, mon
mon1700:00+17wnw1190100 0.0 100733
03:00+17wsw1191100 0.0 100437
06:00+18w1187100 0.0 100464
09:00+24sse1467100 0.0 1002422
12:00+28sse3557100 0.0 1001482
15:00+32sw51241100 0.0 9991682
18:00+25sw2368100 0.0 100180
21:00+22wnw2274100 0.0 100459
18 may, tue
tue1800:00+20nnw228578 0.0 100584
03:00+19ne229288 0.0 1006215
06:00+19e2293100 0.0 1007266
09:00+19e2288100 0.0 1009408
12:00+21e228097 0.1 1009590
15:00+20e1281100 0.6 1009544
18:00+19ne1286100 0.4 1009194
21:00+18ne2290100 0.5 1010287